Regional Weather Roundup
Issued by NWS

Home | Current Version | Previous Version | Text Only | Print | Product List | Glossary On
Versions: 1 2 3 4 5 6 7 8 9 10 11 12 13 14 15 16 17 18 19 20 21 22 23 24 25 26 27 28 29 30 31 32 33 34 35 36 37 38 39 40 41 42 43 44 45 46 47 48 49 50
000
ASUS45 KABQ 231510
RWRNM
WEATHER ROUNDUP FOR NEW MEXICO
NATIONAL WEATHER SERVICE ALBUQUERQUE NM
900 AM MDT TUE SEP 23 2014

NOTE: "FAIR" MEANS FEW OR NO CLOUDS BELOW 12,000 FEET AGL WITH NO
       SIGNIFICANT WEATHER OR OBSTRUCTIONS TO VISION.

      THIS PRODUCT IS RELEASED AS TWO VERSIONS.  ONE VERSION NEAR
      THE TOP OF THE HOUR CONTAINING PRELIMINARY DATA FROM ALBUQUERQUE
      AND OTHER STATIONS.  A FINAL VERSION WITH ADDITIONAL DATA IS
      ISSUED ABOUT 10 MINUTES AFTER THE HOUR.

NMZ501-503-504-510>518-231600-
NORTHWEST PLATEAU/NORTHCENTRAL MOUNTAINS

CITY           SKY/WX    TMP DP  RH WIND       PRES   REMARKS
FARMINGTON     SUNNY     62  45  53 E9        30.26R
LOS ALAMOS     CLOUDY    55  55 100 CALM      30.38R
SANTA FE       CLOUDY    63  56  78 W6        30.32R
TAOS           MOSUNNY   57  54  88 W5        30.38R
ANGEL FIRE     FAIR      54  47  77 W8        30.43R

$$
NMZ402-403-502-505>509-231600-
WESTCENTRAL MOUNTAINS/SOUTHWEST MOUNTAINS

CITY           SKY/WX    TMP DP  RH WIND       PRES   REMARKS
GALLUP         SUNNY     61  55  81 SW3       30.33R
GRANTS         FOG       55  55 100 CALM      30.35S VSB 1/4
SILVER CITY    CLOUDY    64  59  82 SE6       30.30R

$$
NMZ407-409-411-412-231600-
SOUTHERN DESERTS

CITY           SKY/WX    TMP DP  RH WIND       PRES   REMARKS
LORDSBURG      FAIR      70  63  78 NW36G52   30.21R
DEMING         CLOUDY    67  65  93 E9        30.22R
LAS CRUCES     CLOUDY    68  64  86 CALM      30.24R
HOLLOMAN AFB   MOSUNNY   69  59  69 S3        30.21R
ALAMOGORDO     PTSUNNY   68  61  77 CALM      30.24R
T OR C         MOSUNNY   66  61  84 VRB3      30.26S

$$
NMZ519>523-231600-
CENTRAL VALLEYS/CENTRAL HIGHLANDS

CITY           SKY/WX    TMP DP  RH WIND       PRES   REMARKS
ALBUQUERQUE    MOSUNNY   63  58  83 CALM      30.29R
DOUBLE EAGLE   MOSUNNY   61  57  88 S5        30.31R
MORIARTY ARPT  CLOUDY    58  56  94 CALM      30.34R FOG
CLINES CORNERS CLOUDY    58  55  90 SW10      30.35R
BELEN          FAIR      64  58  83 S6        30.28R
SOCORRO        FAIR      65  59  81 S5        30.27S

$$
NMZ524>526-539-540-231600-
SOUTHCENTRAL MOUNTAINS

CITY           SKY/WX    TMP DP  RH WIND       PRES   REMARKS
RUIDOSO        NOT AVBL

$$
NMZ527>531-231600-
NORTHEAST HIGHLANDS/NORTHEAST PLAINS

CITY           SKY/WX    TMP DP  RH WIND       PRES   REMARKS
LAS VEGAS      CLOUDY    60  54  80 E3        30.32R
RATON          SUNNY     61  54  77 CALM      30.27R
CLAYTON        PTSUNNY   66  59  78 SW16G25   30.19S

$$
NMZ532>537-231600-
EASTCENTRAL PLAINS

CITY           SKY/WX    TMP DP  RH WIND       PRES   REMARKS
TUCUMCARI      PTSUNNY   69  61  75 SW18      30.20R
CANNON AFB     MOSUNNY   65  54  67 SW10      30.24R
CLOVIS AIRPORT   N/A     66  61  82 S13       30.26R

$$
NMZ028-029-538-231600-
SOUTHEAST PLAINS

CITY           SKY/WX    TMP DP  RH WIND       PRES   REMARKS
ROSWELL        PTSUNNY   67  63  87 S6        30.20R
CARLSBAD       CLOUDY    67  66  97 S5        30.19R
HOBBS          PTSUNNY   66  66 100 E7        30.24R


$$



USA.gov is the U.S. government's official web portal to all federal, state and local government web resources and services.